Accueil
METAR-TAF:

METAR-TAF

Aéroports :

Bridgeport Municipal Airport

Bridgeport, Texas, États-Unis

latitude: 33-10-31N, longitude: 097-49-42W, altitude: 260 m

Observation

Le bulletin a été fait il y a 18 minutes, à 12:35 UTC
Vent calme
Température 19°C
Humidité 100%
Pression 1014 hPa
Visibilité: 11.3 km
Ciel clair

METAR: KXBP 251235Z AUTO 00000KT 7SM CLR 19/19 A2995 RMK AO2 T01850185

Heure: 07:53 (12:53 UTC)


TAF: absent

Observations et prévisions météorologiques de plus de 4000 aéroports (messages METAR et TAF).

Les stations disponibles sont représentées par des disques jaunes et rouges sur la carte.

Passer la souris dessus pour voir le nom de la station.

Cliquer dessus pour voir les observations et prévisions météorologiques.

Pour changer de carte: cliquez sur les boutons verts avec une croix noire pour zoomer, sur le bouton vert avec un tiret pour effectuer un zoom arrière, ou sur les flèches vertes pour les cartes adjacentes.


METAR-TAF: